Miscellaneous Local Product
Issued by NWS Hastings, NE

Home | Current Version | Previous Version | Graphics & Text | Print | Product List | Glossary On
Versions: 1 2 3 4 5 6 7 8 9 10 11 12 13 14 15 16 17 18 19 20 21 22 23 24 25 26 27 28 29 30 31 32 33 34 35 36 37 38 39 40 41 42 43 44 45 46 47 48 49 50
000
AXUS43 KGID 301402
MISGRI

GID CWA HOURLY WEATHER ROUNDUP
NATIONAL WEATHER SERVICE HASTINGS NE
900 AM CDT SUN AUG 30 2015

NOTE: "FAIR" INDICATES FEW OR NO CLOUDS BELOW 12,000 FEET WITH NO
SIGNIFICANT WEATHER AND/OR OBSTRUCTIONS TO VISIBILITY.

...SOUTH CENTRAL NEBRASKA...

CITY           SKY/WX    TMP DP  RH WIND       PRES   REMARKS
GRAND ISLAND   CLOUDY    64  62  93 S7        30.05S
HASTINGS       FOG       62  61  96 S7        30.05F VSB 1/4
KEARNEY        MOSUNNY   61  57  88 S5        30.04F
ORD            SUNNY     58  58 100 E5        30.01S
YORK           FOG       63  63 100 SW6       30.06S VSB<1/4
AURORA         FOG       63  63 100 S7        30.05S VSB 1
LEXINGTON      SUNNY     61  59  95 SE3       30.05R
HOLDREGE       MOSUNNY   58  57  96 S5        30.05S
HEBRON         FOG       58  57  96 CALM      30.08R VSB 1/2

...NEBRASKA PANHANDLE...

CITY           SKY/WX    TMP DP  RH WIND       PRES   REMARKS
CHADRON        MOSUNNY   73  44  35 S12       29.89S
ALLIANCE       MOSUNNY   68  48  48 S7        29.99S
SCOTTSBLUFF    SUNNY     64  48  56 E5        29.99R
SIDNEY         SUNNY     68  46  45 SW10      30.04F

...WESTERN AND NORTH CENTRAL NEBRASKA...

CITY           SKY/WX    TMP DP  RH WIND       PRES   REMARKS
VALENTINE      SUNNY     65  53  65 SW6       29.94F
AINSWORTH      MOSUNNY   65  55  70 S10       29.97F
ONEILL         SUNNY     65  62  92 S8        29.99S
BROKEN BOW     SUNNY     63  59  87 CALM      30.02S
IMPERIAL       SUNNY     67  48  50 S10       30.04S
NORTH PLATTE   SUNNY     62  56  80 CALM      30.03S
MCCOOK         SUNNY     61  54  77 CALM      30.05S

...EASTERN NEBRASKA...

CITY           SKY/WX    TMP DP  RH WIND       PRES   REMARKS
NORFOLK        CLOUDY    63  62  97 S7        30.02S FOG
TEKAMAH        CLOUDY    62  61  96 SW7       30.04S FOG
COLUMBUS       CLOUDY    63  57  82 CALM      30.05S
ALBION         CLOUDY    63  62  95 S9        30.03S FOG
OMAHA EPPLEY   CLOUDY    64  62  93 S7        30.06R FOG
OFFUTT AFB     CLOUDY    64  64  99 S3        30.05S
MILLARD        CLOUDY    63  61  93 SW5       30.06R FOG
LINCOLN        CLOUDY    63  61  93 SW7       30.06S FOG
NEBRASKA CITY  SUNNY     58  58  99 CALM      30.07S
BEATRICE       FOG       60  60 100 SW3       30.07R VSB<1/4
FALLS CITY     FOG       61  61 100 NW3       30.05S VSB 1/4

...NORTHERN KANSAS...

CITY           SKY/WX    TMP DP  RH WIND       PRES   REMARKS
GOODLAND       MOSUNNY   65  50  58 S10       30.09S
HILL CITY      PTSUNNY   59  58  96 CALM      30.07S FOG
NORTON         SUNNY     61  55  82 S5        30.05S
PHILLIPSBURG   FOG       59  59 100 CALM      30.06S VSB 0
SMITH CENTER   FOG       57  57 100 SE5       30.07S VSB 1/4
HAYS           CLOUDY    57  52  82 CALM      30.07S VSB 1/2
RUSSELL        FOG       58  58 100 SW7       30.06R VSB<1/4
CONCORDIA      FOG       60  60 100 CALM      30.08R VSB<1/4
SALINA         CLOUDY    65  62  90 CALM      30.07R FOG
TOPEKA         FOG       66  66 100 CALM      30.06R VSB 1/4



USA.gov is the U.S. government's official web portal to all federal, state and local government web resources and services.